Location: York
(31.8935°S, 116.7682°E)
Time: 08:59:48
(UTC+08:00)

Tiros 1 - All Passes

Search period start: 03 October 2022 00:00
Search period end: 13 October 2022 00:00
Orbit: 629 x 663 km, 48.4° (Epoch: 02 October)

Date Brightness Start Highest point End Pass type
(mag) Time Alt. Az. Time Alt. Az. Time Alt. Az.
03 Oct - 10:09:09 10° NW 10:13:41 57° NE 10:18:16 10° ESE daylight
03 Oct - 11:52:08 10° W 11:56:04 26° SSW 12:00:02 10° SSE daylight
03 Oct - 13:38:12 10° SSW 13:39:33 11° S 13:40:55 10° S daylight
03 Oct - 15:21:28 10° SSW 15:23:30 13° SSE 15:25:33 10° SE daylight
03 Oct - 17:02:26 10° SW 17:06:48 35° SSE 17:11:09 10° E daylight
03 Oct - 18:44:34 10° WSW 18:48:57 38° NW 18:53:21 10° NNE visible
04 Oct - 08:54:11 10° N 08:57:29 19° NE 09:00:47 10° E daylight
04 Oct - 10:34:43 10° WNW 10:39:17 59° SW 10:43:54 10° SE daylight
04 Oct - 12:19:20 10° WSW 12:22:13 16° SSW 12:25:06 10° SSE daylight
04 Oct - 14:05:36 10° S 14:06:03 10° S 14:06:30 10° S daylight
04 Oct - 15:46:29 10° SSW 15:49:48 19° SSE 15:53:08 10° ESE daylight
04 Oct - 17:27:49 10° SW 17:32:34 77° SE 17:37:19 10° NE daylight
04 Oct - 19:11:38 10° W 19:14:17 15° NW 19:16:55 10° NNW visible
05 Oct - 09:18:21 10° NNW 09:22:50 50° NE 09:27:20 10° ESE daylight
05 Oct - 11:01:07 10° W 11:05:09 28° SSW 11:09:12 10° SSE daylight
05 Oct - 12:47:04 10° SSW 12:48:35 11° S 12:50:05 10° S daylight
05 Oct - 14:30:41 10° SSW 14:32:32 12° SSE 14:34:23 10° SE daylight
05 Oct - 16:11:37 10° SSW 16:15:52 32° SSE 16:20:08 10° E daylight
05 Oct - 17:53:37 10° WSW 17:58:06 42° NW 18:02:35 10° NNE daylight
06 Oct - 08:03:38 10° N 08:06:39 17° NE 08:09:40 10° E daylight
06 Oct - 09:43:48 10° WNW 09:48:24 66° SW 09:53:03 10° SE daylight
06 Oct - 11:28:15 10° WSW 11:31:16 17° SSW 11:34:18 10° SSE daylight
06 Oct - 13:14:50 10° S 13:15:04 10° S 13:15:18 10° S daylight
06 Oct - 14:55:41 10° SSW 14:58:51 17° SSE 15:02:01 10° ESE daylight
06 Oct - 16:36:57 10° SW 16:41:41 70° SE 16:46:24 10° ENE daylight
06 Oct - 18:20:27 10° W 18:23:26 17° NW 18:26:25 10° NNW daylight
07 Oct - 08:27:34 10° NNW 08:31:59 44° NE 08:36:25 10° ESE daylight
07 Oct - 10:10:06 10° W 10:14:14 31° SSW 10:18:22 10° SSE daylight
07 Oct - 11:55:56 10° SSW 11:57:36 12° S 11:59:16 10° S daylight
07 Oct - 13:39:54 10° S 13:41:33 12° S 13:43:11 10° SSE daylight
07 Oct - 15:20:48 10° SSW 15:24:57 30° SSE 15:29:06 10° E daylight
07 Oct - 17:02:42 10° WSW 17:07:14 48° NW 17:11:47 10° NNE daylight
08 Oct - 07:13:09 10° NNE 07:15:49 15° NE 07:18:29 10° E daylight
08 Oct - 08:52:53 10° NW 08:57:31 73° SW 09:02:11 10° SE daylight
08 Oct - 10:37:09 10° WSW 10:40:18 18° SSW 10:43:29 10° SSE daylight
08 Oct - 14:04:53 10° SSW 14:07:53 16° SSE 14:10:54 10° ESE daylight
08 Oct - 15:46:06 10° SW 15:50:46 63° SE 15:55:27 10° ENE daylight
08 Oct - 17:29:19 10° W 17:32:35 19° NW 17:35:52 10° N daylight
09 Oct - 07:36:48 10° NNW 07:41:08 39° NE 07:45:28 10° ESE daylight
09 Oct - 09:19:06 10° W 09:23:18 33° SSW 09:27:32 10° SSE daylight
09 Oct - 11:04:46 10° SW 11:06:37 12° SSW 11:08:28 10° S daylight
09 Oct - 12:49:08 10° S 12:50:33 11° S 12:51:59 10° SSE daylight
09 Oct - 14:29:58 10° SSW 14:34:00 28° SSE 14:38:03 10° E daylight
09 Oct - 16:11:46 10° WSW 16:16:22 54° NW 16:20:57 10° NNE daylight
10 Oct - 06:22:44 10° NNE 06:24:59 13° NE 06:27:13 10° E daylight
10 Oct - 08:01:59 10° NW 08:06:38 81° SW 08:11:18 10° SE daylight
10 Oct - 09:46:03 10° WSW 09:49:21 19° SSW 09:52:40 10° SSE daylight
10 Oct - 11:32:53 10° S 11:33:04 10° S 11:33:16 10° S daylight
10 Oct - 13:14:05 10° SSW 13:16:55 16° SSE 13:19:45 10° ESE daylight
10 Oct - 14:55:15 10° SW 14:59:52 56° SE 15:04:30 10° ENE daylight
10 Oct - 16:38:13 10° W 16:41:43 21° NW 16:45:15 10° N daylight
11 Oct - 06:46:02 10° NNW 06:50:16 35° NE 06:54:30 10° ESE daylight
11 Oct - 08:28:05 10° W 08:32:23 36° SSW 08:36:41 10° SE daylight
11 Oct - 10:13:37 10° SW 10:15:38 12° SSW 10:17:39 10° SSE daylight
11 Oct - 11:58:21 10° S 11:59:34 11° S 12:00:46 10° SSE daylight
11 Oct - 13:39:08 10° SSW 13:43:04 26° SSE 13:46:59 10° E daylight
11 Oct - 15:20:51 10° WSW 15:25:29 60° NW 15:30:07 10° NE daylight
12 Oct - 05:32:28 10° NNE 05:34:07 12° NE 05:35:47 10° ENE daylight
12 Oct - 07:11:04 10° NW 07:15:44 90° WSW 07:20:25 10° SE daylight
12 Oct - 08:54:56 10° WSW 08:58:23 20° SSW 09:01:50 10° SSE daylight
12 Oct - 10:41:39 10° S 10:42:04 10° S 10:42:29 10° S daylight
12 Oct - 12:23:17 10° SSW 12:25:57 15° SSE 12:28:36 10° SE daylight
12 Oct - 14:04:23 10° SW 14:08:57 51° SE 14:13:32 10° ENE daylight
12 Oct - 15:47:09 10° WSW 15:50:52 23° NW 15:54:35 10° N daylight
